• In Austria
  • List of Countries
  • For 7 days
  • Water Temperature
  • Satellite Maps
  • Weather Map
  • News
  • Weather Widgets
  • user-avatar
    Login

    Hourly Weather Perth

    Today, 12 December, Tuesday

    Time Temperature Precipitation Wind Pressure Humidity
    00:00 +25°C° 0 mm 2 mps 755 mmHg 72%
    01:00 +25°C° 0 mm 3 mps 755 mmHg 73%
    02:00 +24°C° 0 mm 2 mps 755 mmHg 76%
    03:00 +24°C° 0.3 mm 3 mps 755 mmHg 78%
    04:00 +24°C° 0.3 mm 3 mps 755 mmHg 80%
    05:00 +22°C° 0.3 mm 3 mps 755 mmHg 82%
    06:00 +24°C° 0.1 mm 3 mps 756 mmHg 77%
    07:00 +26°C° 0.1 mm 4 mps 756 mmHg 72%
    08:00 +27°C° 0.1 mm 4 mps 756 mmHg 67%
    09:00 +28°C° 0.1 mm 4 mps 756 mmHg 60%
    10:00 +30°C° 0.1 mm 5 mps 756 mmHg 54%
    11:00 +32°C° 0.1 mm 6 mps 756 mmHg 47%
    12:00 +32°C° 0 mm 6 mps 756 mmHg 44%
    13:00 +33°C° 0 mm 7 mps 756 mmHg 40%
    14:00 +33°C° 0 mm 7 mps 756 mmHg 37%
    15:00 +31°C° 0 mm 8 mps 756 mmHg 41%
    16:00 +29°C° 0 mm 8 mps 756 mmHg 44%
    17:00 +28°C° 0 mm 8 mps 756 mmHg 48%
    18:00 +26°C° 0 mm 8 mps 757 mmHg 54%
    19:00 +24°C° 0 mm 7 mps 757 mmHg 60%
    20:00 +22°C° 0 mm 7 mps 758 mmHg 65%
    21:00 +21°C° 0 mm 7 mps 758 mmHg 66%
    22:00 +21°C° 0 mm 6 mps 759 mmHg 66%
    23:00 +20°C° 0 mm 6 mps 759 mmHg 67%

    Tomorrow, 13 December, Wednesday

    Time Temperature Precipitation Wind Pressure Humidity
    00:00 +20°C° 0 mm 6 mps 759 mmHg 68%
    01:00 +19°C° 0 mm 6 mps 759 mmHg 69%
    02:00 +17°C° 0 mm 5 mps 759 mmHg 71%
    03:00 +17°C° 0 mm 5 mps 759 mmHg 72%
    04:00 +16°C° 0 mm 5 mps 760 mmHg 73%
    05:00 +17°C° 0 mm 4 mps 760 mmHg 74%
    06:00 +18°C° 0 mm 4 mps 760 mmHg 67%
    07:00 +20°C° 0 mm 4 mps 761 mmHg 59%
    08:00 +21°C° 0 mm 4 mps 761 mmHg 52%
    09:00 +23°C° 0 mm 4 mps 761 mmHg 46%
    10:00 +26°C° 0 mm 4 mps 761 mmHg 40%
    11:00 +28°C° 0 mm 4 mps 761 mmHg 35%
    12:00 +28°C° 0 mm 5 mps 760 mmHg 35%
    13:00 +29°C° 0 mm 5 mps 760 mmHg 35%
    14:00 +29°C° 0 mm 6 mps 760 mmHg 35%
    15:00 +28°C° 0 mm 6 mps 759 mmHg 38%
    16:00 +27°C° 0 mm 7 mps 759 mmHg 41%
    17:00 +27°C° 0 mm 7 mps 759 mmHg 44%
    18:00 +24°C° 0 mm 7 mps 759 mmHg 48%
    19:00 +23°C° 0 mm 6 mps 760 mmHg 52%
    20:00 +22°C° 0 mm 6 mps 760 mmHg 57%
    21:00 +21°C° 0 mm 6 mps 761 mmHg 56%
    22:00 +21°C° 0 mm 6 mps 761 mmHg 55%
    23:00 +21°C° 0 mm 5 mps 761 mmHg 55%

    Day after tomorrow, 14 December, Thursday

    Time Temperature Precipitation Wind Pressure Humidity
    00:00 +20°C° 0 mm 5 mps 761 mmHg 55%
    01:00 +20°C° 0 mm 5 mps 761 mmHg 56%
    02:00 +19°C° 0 mm 5 mps 760 mmHg 57%
    03:00 +19°C° 0 mm 5 mps 761 mmHg 59%
    04:00 +18°C° 0 mm 4 mps 761 mmHg 61%
    05:00 +18°C° 0 mm 4 mps 761 mmHg 63%
    06:00 +19°C° 0 mm 4 mps 761 mmHg 58%
    07:00 +21°C° 0 mm 4 mps 761 mmHg 53%
    08:00 +22°C° 0 mm 4 mps 762 mmHg 49%
    09:00 +26°C° 0 mm 4 mps 761 mmHg 42%
    10:00 +28°C° 0 mm 3 mps 761 mmHg 36%
    11:00 +30°C° 0 mm 3 mps 761 mmHg 29%
    12:00 +31°C° 0 mm 3 mps 760 mmHg 29%
    13:00 +33°C° 0 mm 4 mps 759 mmHg 28%
    14:00 +33°C° 0 mm 5 mps 759 mmHg 27%
    15:00 +32°C° 0 mm 5 mps 759 mmHg 30%
    16:00 +30°C° 0 mm 6 mps 758 mmHg 33%
    17:00 +29°C° 0 mm 6 mps 758 mmHg 36%
    18:00 +27°C° 0 mm 6 mps 758 mmHg 45%
    19:00 +24°C° 0 mm 6 mps 759 mmHg 53%
    20:00 +22°C° 0 mm 6 mps 759 mmHg 62%
    21:00 +22°C° 0 mm 6 mps 759 mmHg 63%
    22:00 +21°C° 0 mm 6 mps 759 mmHg 64%
    23:00 +21°C° 0 mm 6 mps 759 mmHg 65%

    15 December, Friday

    Time Temperature Precipitation Wind Pressure Humidity
    00:00 +21°C° 0 mm 5 mps 759 mmHg 65%
    01:00 +20°C° 0 mm 5 mps 758 mmHg 66%
    02:00 +20°C° 0 mm 5 mps 758 mmHg 66%
    03:00 +20°C° 0 mm 5 mps 758 mmHg 68%
    04:00 +19°C° 0 mm 5 mps 758 mmHg 70%
    05:00 +19°C° 0 mm 4 mps 758 mmHg 72%
    06:00 +21°C° 0 mm 4 mps 758 mmHg 66%
    07:00 +22°C° 0 mm 4 mps 758 mmHg 59%
    08:00 +25°C° 0 mm 4 mps 758 mmHg 53%
    09:00 +28°C° 0 mm 4 mps 758 mmHg 44%
    10:00 +31°C° 0 mm 3 mps 757 mmHg 35%
    11:00 +34°C° 0 mm 3 mps 757 mmHg 26%
    12:00 +35°C° 0 mm 4 mps 756 mmHg 25%
    13:00 +36°C° 0 mm 4 mps 755 mmHg 24%
    14:00 +37°C° 0 mm 5 mps 754 mmHg 23%
    15:00 +36°C° 0 mm 5 mps 754 mmHg 25%
    16:00 +35°C° 0 mm 6 mps 754 mmHg 27%
    17:00 +34°C° 0 mm 6 mps 753 mmHg 29%
    18:00 +32°C° 0 mm 6 mps 753 mmHg 34%
    19:00 +29°C° 0 mm 6 mps 754 mmHg 39%
    20:00 +27°C° 0 mm 6 mps 754 mmHg 44%
    21:00 +27°C° 0 mm 6 mps 754 mmHg 42%
    22:00 +27°C° 0 mm 5 mps 754 mmHg 41%
    23:00 +26°C° 0 mm 5 mps 754 mmHg 40%

    16 December, Saturday

    Time Temperature Precipitation Wind Pressure Humidity
    00:00 +26°C° 0 mm 5 mps 754 mmHg 43%
    01:00 +25°C° 0 mm 5 mps 754 mmHg 46%
    02:00 +25°C° 0 mm 5 mps 753 mmHg 49%
    03:00 +23°C° 0 mm 4 mps 753 mmHg 51%
    04:00 +22°C° 0 mm 4 mps 753 mmHg 54%
    05:00 +21°C° 0 mm 4 mps 753 mmHg 56%
    06:00 +24°C° 0 mm 3 mps 753 mmHg 51%
    07:00 +25°C° 0 mm 3 mps 753 mmHg 47%
    08:00 +27°C° 0 mm 2 mps 753 mmHg 42%
    09:00 +28°C° 0 mm 4 mps 753 mmHg 40%
    10:00 +30°C° 0 mm 5 mps 753 mmHg 38%
    11:00 +32°C° 0 mm 6 mps 752 mmHg 35%
    12:00 +30°C° 0 mm 6 mps 752 mmHg 38%
    13:00 +30°C° 0 mm 7 mps 752 mmHg 40%
    14:00 +29°C° 0 mm 8 mps 751 mmHg 43%
    15:00 +28°C° 0 mm 8 mps 751 mmHg 46%
    16:00 +26°C° 0 mm 8 mps 752 mmHg 50%
    17:00 +24°C° 0 mm 7 mps 752 mmHg 53%
    18:00 +22°C° 0 mm 7 mps 752 mmHg 60%
    19:00 +21°C° 0 mm 6 mps 752 mmHg 66%
    20:00 +19°C° 0 mm 6 mps 753 mmHg 73%
    21:00 +20°C° 0.2 mm 6 mps 753 mmHg 74%
    22:00 +20°C° 0.2 mm 7 mps 753 mmHg 74%
    23:00 +20°C° 0.2 mm 7 mps 752 mmHg 74%

    17 December, Sunday

    Time Temperature Precipitation Wind Pressure Humidity
    00:00 +18°C° 0.1 mm 7 mps 752 mmHg 74%
    01:00 +18°C° 0.1 mm 7 mps 752 mmHg 73%
    02:00 +17°C° 0.1 mm 7 mps 751 mmHg 72%
    03:00 +17°C° 0.2 mm 7 mps 751 mmHg 71%
    04:00 +16°C° 0.2 mm 8 mps 751 mmHg 70%
    05:00 +16°C° 0.2 mm 8 mps 751 mmHg 69%
    06:00 +16°C° 0.2 mm 8 mps 752 mmHg 65%
    07:00 +16°C° 0.2 mm 8 mps 752 mmHg 61%
    08:00 +16°C° 0.2 mm 7 mps 753 mmHg 57%
    09:00 +17°C° 0.2 mm 8 mps 752 mmHg 54%
    10:00 +18°C° 0.2 mm 8 mps 752 mmHg 50%
    11:00 +18°C° 0.2 mm 8 mps 752 mmHg 46%
    12:00 +18°C° 0.2 mm 9 mps 751 mmHg 46%
    13:00 +18°C° 0.2 mm 9 mps 751 mmHg 47%
    14:00 +18°C° 0.2 mm 10 mps 751 mmHg 47%
    15:00 +18°C° 0.3 mm 9 mps 751 mmHg 51%
    16:00 +17°C° 0.3 mm 9 mps 751 mmHg 55%
    17:00 +16°C° 0.3 mm 9 mps 751 mmHg 58%
    18:00 +16°C° 0.4 mm 9 mps 751 mmHg 61%
    19:00 +16°C° 0.4 mm 9 mps 751 mmHg 64%
    20:00 +15°C° 0.4 mm 9 mps 751 mmHg 67%
    21:00 +15°C° 0.9 mm 9 mps 751 mmHg 68%
    22:00 +15°C° 0.9 mm 9 mps 751 mmHg 70%
    23:00 +15°C° 0.9 mm 9 mps 752 mmHg 71%
    Show more